Location: Luz Observatory
(34.5000°N, 117.2833°W)
Time: 09:31:21
(UTC-07:00)

Cosmos 1484 Rocket - Visible Passes

Search period start: 30 May 2015 00:00
Search period end: 09 June 2015 00:00
Orbit: 511 x 567 km, 97.4° (Epoch: 29 May)

Date Brightness Start Highest point End Pass type
(mag) Time Alt. Az. Time Alt. Az. Time Alt. Az.
04 Jun 5.8 21:01:20 10° WSW 21:03:11 12° W 21:04:50 10° WNW visible
05 Jun 5.7 20:53:06 10° SW 20:55:37 15° W 20:57:56 10° WNW visible
06 Jun 5.5 20:45:05 10° SW 20:48:01 19° W 20:50:50 10° NW visible
07 Jun 5.2 20:37:11 10° SSW 20:40:27 23° W 20:43:38 10° NW visible
08 Jun 4.9 20:29:23 10° SSW 20:32:53 29° W 20:36:20 10° NW visible
